[TLELIST] Archives

 

[list_settings.list_name] Current TLEs

March 18th 2016 PST

HST 1 20580U 90037B 16077.60023867 .00001554 00000-0 86581-4 0 9994 2 20580 28.4695 143.4841 0002553 307.3564 172.3419 15.08246090221275 ISS (ZARYA) 1 25544U 98067A 16078.38417330 .00007493 00000-0 12011-3 0 9992 2 25544 51.6465 150.8960 0001869 314.2504 153.2266 15.54177117990856 CXO 1 25867U 99040B 16080.52660673 .00000312 00000-0 00000+0 0 9995 2 25867 76.1652 300.0015 7173218 263.1125 359.9493 0.37801683 14334 ____________________________________________________________________ These 2-Line ...Continue Reading

[list_settings.list_name] Current TLEs

March 17th 2016 PST

HST 1 20580U 90037B 16076.53710950 .00001651 00000-0 92718-4 0 9998 2 20580 28.4696 150.5033 0002532 294.7290 161.0872 15.08243498221109 ISS (ZARYA) 1 25544U 98067A 16077.22498784 .00011633 00000-0 18251-3 0 9999 2 25544 51.6438 156.6708 0001478 307.3798 150.1482 15.54156238990671 CXO 1 25867U 99040B 16077.88327407 .00000379 00000-0 00000+0 0 9998 2 25867 76.1754 300.0740 7173099 263.1767 0.0878 0.37797638 14325 ____________________________________________________________________ These 2-Line ...Continue Reading

[list_settings.list_name] Current TLEs

March 16th 2016 PST

HST 1 20580U 90037B 16074.69046297 .00001485 00000-0 82249-4 0 9992 2 20580 28.4696 162.6956 0002543 273.4110 215.8762 15.08237065220832 ISS (ZARYA) 1 25544U 98067A 16076.26144071 .00011816 00000-0 18541-3 0 9994 2 25544 51.6436 161.4736 0001366 298.7866 164.2016 15.54133574990520 CXO 1 25867U 99040B 16077.88327407 .00000379 00000-0 00000+0 0 9998 2 25867 76.1754 300.0740 7173099 263.1767 0.0878 0.37797638 14325 ____________________________________________________________________ These 2-Line ...Continue Reading

[list_settings.list_name] Current TLEs

March 15th 2016 PST

HST 1 20580U 90037B 16074.69046297 .00001485 00000-0 82249-4 0 9992 2 20580 28.4696 162.6956 0002543 273.4110 215.8762 15.08237065220832 ISS (ZARYA) 1 25544U 98067A 16075.22132919 .00012443 00000-0 19501-3 0 9991 2 25544 51.6439 166.6580 0001385 289.4436 110.4457 15.54110951990366 CXO 1 25867U 99040B 16077.88327407 .00000379 00000-0 00000+0 0 9998 2 25867 76.1754 300.0740 7173099 263.1767 0.0878 0.37797638 14325 ____________________________________________________________________ These 2-Line ...Continue Reading

[list_settings.list_name] Current TLEs

March 14th 2016 PST

HST 1 20580U 90037B 16073.56568542 .00001687 00000-0 94968-4 0 9994 2 20580 28.4696 170.1216 0002563 259.5720 230.4739 15.08234681220668 ISS (ZARYA) 1 25544U 98067A 16074.46075194 .00012187 00000-0 19130-3 0 9990 2 25544 51.6440 170.4497 0001392 284.2159 177.6011 15.54090445990244 CXO 1 25867U 99040B 16075.23885246 .00000446 00000-0 00000+0 0 9990 2 25867 76.1796 300.1299 7174660 263.2607 0.0498 0.37798108 14310 ____________________________________________________________________ These 2-Line ...Continue Reading

[list_settings.list_name] Current TLEs

March 13th 2016 PST

HST 1 20580U 90037B 16071.71025203 .00001820 00000-0 10337-3 0 9997 2 20580 28.4695 182.3719 0002571 237.8954 237.8753 15.08229132220388 ISS (ZARYA) 1 25544U 98067A 16073.43540876 .00011344 00000-0 17878-3 0 9991 2 25544 51.6435 175.5589 0001593 287.3853 194.1545 15.54061316990087 CXO 1 25867U 99040B 16075.23885246 .00000446 00000-0 00000+0 0 9990 2 25867 76.1796 300.1299 7174660 263.2607 0.0498 0.37798108 14310 ____________________________________________________________________ These 2-Line ...Continue Reading

[list_settings.list_name] Current TLEs

March 12th 2016 PST

HST 1 20580U 90037B 16071.71025203 .00001820 00000-0 10337-3 0 9997 2 20580 28.4695 182.3719 0002571 237.8954 237.8753 15.08229132220388 ISS (ZARYA) 1 25544U 98067A 16072.26548727 .00010035 00000-0 15920-3 0 9996 2 25544 51.6435 181.3899 0001560 280.1999 131.7811 15.54028526989900 CXO 1 25867U 99040B 16072.59491664 .00000481 00000-0 00000+0 0 9992 2 25867 76.1787 300.1950 7177972 263.3338 0.0779 0.37805939 14307 ____________________________________________________________________ These 2-Line ...Continue Reading

[list_settings.list_name] Current TLEs

March 11th 2016 PST

HST 1 20580U 90037B 16070.51241176 .00001689 00000-0 95168-4 0 9992 2 20580 28.4691 190.2798 0002584 224.7092 214.3674 15.08224347220195 ISS (ZARYA) 1 25544U 98067A 16071.24200598 .00010317 00000-0 16357-3 0 9992 2 25544 51.6424 186.4897 0001626 272.8910 169.4698 15.54008007989741 CXO 1 25867U 99040B 16072.59491664 .00000481 00000-0 00000+0 0 9992 2 25867 76.1787 300.1950 7177972 263.3338 0.0779 0.37805939 14307 ____________________________________________________________________ These 2-Line ...Continue Reading

[list_settings.list_name] Current TLEs

March 10th 2016 PST

HST 1 20580U 90037B 16068.75263889 +.00001715 +00000-0 +96791-4 0 9993 2 20580 028.4691 201.8985 0002653 205.1709 020.1226 15.08218568219841 ISS (ZARYA) 1 25544U 98067A 16070.41063895 .00010731 00000-0 16994-3 0 9994 2 25544 51.6421 190.6314 0001625 256.5975 211.6947 15.53992012989618 CXO 1 25867U 99040B 16069.95102785 .00000543 00000-0 00000+0 0 9990 2 25867 76.1889 300.2580 7181081 263.4009 0.1076 0.37811176 14291 ____________________________________________________________________ These 2-Line ...Continue Reading

[list_settings.list_name] Current TLEs

March 9th 2016 PST

HST 1 20580U 90037B 16068.75263889 .00001663 00000-0 93495-4 0 9993 2 20580 28.4691 201.8985 0002652 205.1744 20.1199 15.08218338219933 ISS (ZARYA) 1 25544U 98067A 16069.43977615 .00011131 00000-0 17611-3 0 9990 2 25544 51.6420 195.4715 0001568 253.4741 179.8949 15.53972318989465 CXO 1 25867U 99040B 16069.95102785 .00000543 00000-0 00000+0 0 9990 2 25867 76.1889 300.2580 7181081 263.4009 0.1076 0.37811176 14291 ____________________________________________________________________ These 2-Line ...Continue Reading
  • This mailing list is a public mailing list - anyone may join or leave, at any time.
  • This mailing list is announce-only.

International Space Station (ISS) / Hubble Space Telescope (HST) / Chandra X-Ray Observatory Orbital Data via EMAIL

Privacy Policy:

Private list